Location: Devore Heights
(34.2372°N, 117.4156°W)
Time: 15:11:02
(UTC+00:00)

Explorer 7 - Visible Passes

Search period start: 13 September 2024 00:00
Search period end: 23 September 2024 00:00
Orbit: 462 x 610 km, 50.3° (Epoch: 13 September)

Date Brightness Start Highest point End Pass type
(mag) Time Alt. Az. Time Alt. Az. Time Alt. Az.
13 Sep 9.0 11:51:39 12° NNW 11:51:40 12° NNW 11:53:17 10° N visible
14 Sep 9.2 11:41:58 11° NNW 11:41:58 11° NNW 11:42:39 10° N visible
21 Sep 9.4 12:10:05 10° N 12:11:19 11° NNE 12:12:32 10° NE visible
22 Sep 9.3 11:59:01 10° N 12:00:49 13° NNE 12:02:36 10° NE visible
